Location: *
(51.0333°S, 178.4667°E)
Time: 11:04:10
(UTC+00:00)

STARLINK-58 - Pass Details

Date: 15 November 2019
Orbit: 529 x 530 km, 53.0° (Epoch: 06 December)

Event Time Altitude Azimuth Distance (km) Brightness Sun altitude
Rises 09:00:06 0° 272° (W) 2,677 7.7 -11.1°
Reaches altitude 10° 09:02:19 10° 269° (W) 1,789 6.8 -11.3°
Maximum altitude 09:06:22 66° 185° (S) 587 3.9 -11.7°
Drops below altitude 10° 09:10:26 10° 102° (ESE) 1,794 6.0 -12.2°
Enters shadow 09:12:33 - 99° (E) 2,639 6.8 -12.4°
